| time (UTC) | temp F | wind direction | speed MPH | gust MPH | rain 1hr in | rain 24hr in | rain mn in | humidity % | barometer mb |
| 20260905025527 | 58 | 98 | 4.0 | 6.0 | 0.00 | 0.17 | 0.16 | 88 | |
| 20260905024536 | 59 | 101 | 5.0 | 9.0 | 0.00 | 0.19 | 0.16 | 87 | |
| 20260905023547 | 59 | 94 | 4.0 | 5.0 | 0.00 | 0.22 | 0.16 | 86 | |
| 20260905022533 | 59 | 93 | 5.0 | 7.0 | 0.00 | 0.24 | 0.16 | 85 | |
| 20260905021542 | 60 | 102 | 5.0 | 6.0 | 0.00 | 0.24 | 0.16 | 82 | |
| 20260905020530 | 60 | 85 | 5.0 | 10.0 | 0.00 | 0.24 | 0.16 | 80 | |
| 20260905015520 | 60 | 92 | 6.0 | 12.0 | 0.00 | 0.24 | 0.16 | 79 | |
| 20260905014548 | 61 | 82 | 6.0 | 8.0 | 0.00 | 0.24 | 0.16 | 81 | |
| 20260905013555 | 61 | 59 | 9.0 | 12.0 | 0.00 | 0.24 | 0.16 | 79 | |
| 20260905012544 | 62 | 51 | 8.0 | 12.0 | 0.00 | 0.24 | 0.16 | 79 | |
| 20260905011533 | 62 | 44 | 8.0 | 9.0 | 0.00 | 0.24 | 0.16 | 82 | |
| 20260905010542 | 63 | 50 | 8.0 | 9.0 | 0.00 | 0.25 | 0.16 | 82 | |
| 20260905005550 | 64 | 52 | 7.0 | 9.0 | 0.00 | 0.25 | 0.16 | 80 | |
| 20260905004542 | 63 | 34 | 7.0 | 8.0 | 0.00 | 0.25 | 0.16 | 80 | |
| 20260905003527 | 63 | 19 | 6.0 | 7.0 | 0.00 | 0.25 | 0.16 | 84 | |
| 20260905002534 | 62 | 52 | 5.0 | 6.0 | 0.00 | 0.25 | 0.16 | 85 | |
| 20260905001524 | 62 | 36 | 5.0 | 7.0 | 0.00 | 0.25 | 0.16 | 83 | |
| 20260905000531 | 62 | 47 | 5.0 | 7.0 | 0.00 | 0.26 | 0.16 | 79 | |
| 20260904235521 | 62 | 35 | 5.0 | 7.0 | 0.00 | 0.26 | 0.16 | 80 | |
| 20260904234530 | 62 | 23 | 5.0 | 6.0 | 0.00 | 0.26 | 0.16 | 81 | |
| 20260904233536 | 62 | 60 | 6.0 | 8.0 | 0.00 | 0.26 | 0.16 | 80 | |
| 20260904232528 | 63 | 38 | 7.0 | 8.0 | 0.00 | 0.26 | 0.16 | 78 | |
| 20260904231533 | 65 | 61 | 6.0 | 8.0 | 0.00 | 0.26 | 0.16 | 74 | |
| 20260904230547 | 65 | 62 | 4.0 | 7.0 | 0.00 | 0.27 | 0.16 | 74 | |
| 20260904225550 | 64 | 91 | 4.0 | 5.0 | 0.00 | 0.28 | 0.16 | 75 | |
| 20260904224520 | 63 | 81 | 3.0 | 4.0 | 0.00 | 0.29 | 0.16 | 78 | |
| 20260904223527 | 63 | 99 | 1.0 | 3.0 | 0.00 | 0.30 | 0.16 | 79 | |
| 20260904222536 | 62 | 187 | 1.0 | 3.0 | 0.00 | 0.30 | 0.16 | 82 | |
| 20260904221548 | 62 | 115 | 1.0 | 3.0 | 0.00 | 0.30 | 0.16 | 83 | |
| 20260904220556 | 62 | 178 | 3.0 | 4.0 | 0.00 | 0.30 | 0.16 | 82 | |
| 20260904215523 | 62 | 161 | 2.0 | 3.0 | 0.00 | 0.32 | 0.16 | 84 | |
| 20260904214531 | 61 | 167 | 4.0 | 5.0 | 0.00 | 0.34 | 0.16 | 81 | |
| 20260904213520 | 61 | 162 | 4.0 | 7.0 | 0.00 | 0.39 | 0.16 | 82 | |
| 20260904212548 | 61 | 150 | 5.0 | 7.0 | 0.00 | 0.40 | 0.16 | 81 | |
| 20260904211535 | 63 | 181 | 9.0 | 12.0 | 0.00 | 0.40 | 0.16 | 77 | |
| 20260904210527 | 66 | 94 | 9.0 | 10.0 | 0.00 | 0.40 | 0.16 | 64 | |
| 20260904205541 | 66 | 144 | 6.0 | 9.0 | 0.00 | 0.40 | 0.16 | 66 | |
| 20260904204522 | 66 | 103 | 5.0 | 6.0 | 0.00 | 0.40 | 0.16 | 67 | |
| 20260904203530 | 66 | 92 | 4.0 | 6.0 | 0.00 | 0.40 | 0.16 | 67 | |
| 20260904202519 | 65 | 161 | 3.0 | 6.0 | 0.00 | 0.40 | 0.16 | 69 | |
| 20260904201527 | 64 | 65 | 4.0 | 7.0 | 0.00 | 0.40 | 0.16 | 76 | |
| 20260904200535 | 64 | 54 | 3.0 | 6.0 | 0.00 | 0.40 | 0.16 | 76 | |
| 20260904195527 | 63 | 75 | 3.0 | 4.0 | 0.00 | 0.40 | 0.16 | 79 | |
| 20260904194556 | 63 | 65 | 2.0 | 3.0 | 0.00 | 0.40 | 0.16 | 81 | |
| 20260904193522 | 62 | 169 | 1.0 | 3.0 | 0.00 | 0.40 | 0.16 | 84 | |
| 20260904192550 | 61 | 12 | 2.0 | 4.0 | 0.00 | 0.40 | 0.16 | 85 | |
| 20260904191520 | 61 | 80 | 4.0 | 5.0 | 0.00 | 0.40 | 0.16 | 81 | |
| 20260904190546 | 63 | 203 | 3.0 | 5.0 | 0.00 | 0.40 | 0.16 | 79 | |
| 20260904185536 | 63 | 289 | 2.0 | 3.0 | 0.00 | 0.40 | 0.16 | 77 | |
| 20260904184524 | 63 | 53 | 4.0 | 5.0 | 0.00 | 0.40 | 0.16 | 80 | |
| 20260904183533 | 63 | 54 | 3.0 | 4.0 | 0.00 | 0.40 | 0.16 | 79 | |
| 20260904182521 | 62 | 43 | 2.0 | 4.0 | 0.00 | 0.40 | 0.16 | 81 | |
| 20260904181530 | 61 | 8 | 4.0 | 5.0 | 0.00 | 0.40 | 0.16 | 82 | |
| 20260904180519 | 62 | 7 | 2.0 | 4.0 | 0.00 | 0.40 | 0.16 | 83 | |
| 20260904175527 | 61 | 338 | 1.0 | 3.0 | 0.00 | 0.40 | 0.16 | 85 | |
| 20260904174536 | 62 | 298 | 1.0 | 4.0 | 0.00 | 0.40 | 0.16 | 83 | |
| 20260904173524 | 62 | 7 | 2.0 | 4.0 | 0.00 | 0.40 | 0.16 | 81 | |
| 20260904172533 | 62 | 74 | 1.0 | 3.0 | 0.00 | 0.40 | 0.16 | 81 | |
| 20260904171602 | 62 | 113 | 1.0 | 2.0 | 0.00 | 0.43 | 0.16 | 83 | |
| 20260904170530 | 62 | 20 | 1.0 | 2.0 | 0.00 | 0.45 | 0.16 | 84 | |
| 20260904165520 | 61 | 349 | 0.0 | 3.0 | 0.00 | 0.46 | 0.16 | 85 | |
| 20260904164527 | 61 | 311 | 2.0 | 4.0 | 0.00 | 0.47 | 0.16 | 87 | |
| 20260904163558 | 60 | 8 | 2.0 | 3.0 | 0.00 | 0.47 | 0.16 | 88 | |
| 20260904162527 | 60 | 3 | 3.0 | 4.0 | 0.00 | 0.47 | 0.16 | 88 | |
| 20260904161532 | 60 | 61 | 2.0 | 4.0 | 0.00 | 0.47 | 0.16 | 89 | |
| 20260904160522 | 59 | 351 | 3.0 | 6.0 | 0.02 | 0.48 | 0.16 | 92 | |
| 20260904155550 | 57 | 24 | 4.0 | 5.0 | 0.03 | 0.48 | 0.16 | 96 | |
| 20260904154519 | 56 | 45 | 3.0 | 6.0 | 0.03 | 0.48 | 0.16 | 98 | |
| 20260904153527 | 55 | 24 | 4.0 | 5.0 | 0.03 | 0.48 | 0.16 | 99 | |
| 20260904152535 | 55 | 353 | 2.0 | 3.0 | 0.03 | 0.48 | 0.16 | 99 | |
| 20260904151524 | 55 | 304 | 1.0 | 3.0 | 0.03 | 0.48 | 0.16 | 99 | |
| 20260904150556 | 55 | 296 | 1.0 | 3.0 | 0.01 | 0.46 | 0.14 | 99 | |
| 20260904145522 | 54 | 256 | 1.0 | 2.0 | 0.00 | 0.45 | 0.13 | 99 | |
| 20260904144530 | 54 | 158 | 0.0 | 2.0 | 0.01 | 0.45 | 0.13 | 99 | |
| 20260904143520 | 54 | 292 | 1.0 | 3.0 | 0.01 | 0.45 | 0.13 | 99 | |
| 20260904142527 | 54 | 250 | 1.0 | 3.0 | 0.01 | 0.45 | 0.13 | 99 | |
| 20260904141535 | 53 | 8 | 1.0 | 3.0 | 0.01 | 0.45 | 0.13 | 99 | |
| 20260904140527 | 53 | 0.0 | 0.0 | 0.01 | 0.45 | 0.13 | 99 | ||
| 20260904135536 | 53 | 0.0 | 0.0 | 0.01 | 0.47 | 0.13 | 99 | ||
| 20260904134522 | 53 | 0.0 | 0.0 | 0.00 | 0.47 | 0.12 | 99 | ||
| 20260904133532 | 53 | 0.0 | 0.0 | 0.00 | 0.48 | 0.12 | 99 | ||
| 20260904132540 | 53 | 0.0 | 0.0 | 0.00 | 0.50 | 0.12 | 99 | ||
| 20260904131549 | 53 | 0.0 | 0.0 | 0.00 | 0.51 | 0.12 | 99 | ||
| 20260904130536 | 53 | 0.0 | 0.0 | 0.00 | 0.51 | 0.12 | 99 | ||
| 20260904125527 | 53 | 0.0 | 0.0 | 0.00 | 0.51 | 0.12 | 99 | ||
| 20260904124537 | 53 | 0.0 | 0.0 | 0.00 | 0.51 | 0.12 | 99 | ||
| 20260904123523 | 53 | 0.0 | 0.0 | 0.00 | 0.51 | 0.12 | 99 | ||
| 20260904122531 | 53 | 0.0 | 0.0 | 0.00 | 0.51 | 0.12 | 99 | ||
| 20260904121521 | 53 | 286 | 1.0 | 2.0 | 0.00 | 0.51 | 0.12 | 99 | |
| 20260904120528 | 53 | 270 | 1.0 | 2.0 | 0.00 | 0.51 | 0.12 | 99 | |
| 20260904115536 | 53 | 293 | 1.0 | 2.0 | 0.00 | 0.51 | 0.12 | 99 | |
| 20260904114528 | 53 | 0.0 | 0.0 | 0.00 | 0.51 | 0.12 | 99 | ||
| 20260904113534 | 53 | 293 | 0.0 | 2.0 | 0.00 | 0.51 | 0.12 | 99 | |
| 20260904112523 | 54 | 168 | 1.0 | 2.0 | 0.01 | 0.51 | 0.12 | 99 | |
| 20260904111533 | 54 | 55 | 0.0 | 3.0 | 0.02 | 0.51 | 0.12 | 99 | |
| 20260904110521 | 54 | 35 | 2.0 | 3.0 | 0.02 | 0.51 | 0.12 | 99 | |
| 20260904105529 | 54 | 0.0 | 1.0 | 0.03 | 0.51 | 0.12 | 99 | ||
| 20260904104537 | 54 | 353 | 2.0 | 3.0 | 0.03 | 0.51 | 0.12 | 99 | |
| 20260904103527 | 53 | 338 | 0.0 | 2.0 | 0.03 | 0.51 | 0.12 | 99 | |
| 20260904102534 | 54 | 0.0 | 0.0 | 0.02 | 0.50 | 0.11 | 99 | ||
| 20260904101524 | 54 | 0.0 | 1.0 | 0.02 | 0.49 | 0.10 | 99 | ||
| 20260904100532 | 54 | 45 | 0.0 | 2.0 | 0.03 | 0.49 | 0.10 | 99 | |
| 20260904095522 | 54 | 68 | 2.0 | 4.0 | 0.04 | 0.48 | 0.09 | 99 | |
| 20260904094530 | 54 | 35 | 3.0 | 4.0 | 0.05 | 0.48 | 0.09 | 99 | |
| 20260904093537 | 54 | 23 | 4.0 | 5.0 | 0.07 | 0.48 | 0.09 | 99 | |
| 20260904092528 | 54 | 35 | 1.0 | 2.0 | 0.08 | 0.48 | 0.09 | 99 | |
| 20260904091535 | 54 | 0.0 | 0.0 | 0.08 | 0.47 | 0.08 | 99 | ||
| 20260904090544 | 54 | 0.0 | 0.0 | 0.07 | 0.46 | 0.07 | 99 | ||
| 20260904085532 | 54 | 12 | 1.0 | 3.0 | 0.05 | 0.44 | 0.05 | 99 | |
| 20260904084521 | 54 | 40 | 3.0 | 4.0 | 0.04 | 0.43 | 0.04 | 99 | |
| 20260904083529 | 54 | 32 | 3.0 | 4.0 | 0.02 | 0.41 | 0.02 | 99 | |
| 20260904082519 | 54 | 0.0 | 0.0 | 0.01 | 0.40 | 0.01 | 99 | ||
| 20260904081527 | 54 | 0.0 | 0.0 | 0.00 | 0.39 | 0.00 | 99 | ||
| 20260904080535 | 54 | 0.0 | 0.0 | 0.00 | 0.39 | 0.00 | 99 | ||
| 20260904075545 | 54 | 0.0 | 0.0 | 0.00 | 0.39 | 0.00 | 99 | ||
| 20260904074533 | 54 | 0.0 | 0.0 | 0.00 | 0.39 | 0.00 | 99 | ||
| 20260904073542 | 54 | 0.0 | 0.0 | 0.00 | 0.39 | 0.00 | 99 | ||
| 20260904072533 | 54 | 0.0 | 0.0 | 0.00 | 0.39 | 0.00 | 99 | ||
| 20260904071519 | 54 | 0.0 | 0.0 | 0.00 | 0.39 | 0.00 | 99 | ||
| 20260904070527 | 54 | 0.0 | 0.0 | 0.00 | 0.39 | 0.00 | 99 | ||
| 20260904065535 | 54 | 0.0 | 0.0 | 0.00 | 0.39 | 0.39 | 99 | ||
| 20260904064527 | 54 | 0.0 | 0.0 | 0.00 | 0.39 | 0.39 | 99 | ||
| 20260904063533 | 54 | 0.0 | 0.0 | 0.00 | 0.39 | 0.39 | 99 | ||
| 20260904062522 | 54 | 0.0 | 0.0 | 0.00 | 0.39 | 0.39 | 99 | ||
| 20260904061530 | 54 | 0.0 | 0.0 | 0.00 | 0.39 | 0.39 | 99 | ||
| 20260904060539 | 54 | 0.0 | 0.0 | 0.00 | 0.39 | 0.39 | 99 | ||
| 20260904055527 | 54 | 0.0 | 0.0 | 0.00 | 0.40 | 0.39 | 99 | ||
| 20260904054556 | 54 | 0.0 | 0.0 | 0.00 | 0.40 | 0.39 | 99 | ||
| 20260904053527 | 54 | 0.0 | 0.0 | 0.00 | 0.40 | 0.39 | 99 | ||
| 20260904052533 | 54 | 0.0 | 0.0 | 0.00 | 0.40 | 0.39 | 99 | ||
| 20260904051523 | 54 | 0.0 | 0.0 | 0.00 | 0.41 | 0.39 | 99 | ||
| 20260904050531 | 54 | 225 | 0.0 | 2.0 | 0.00 | 0.41 | 0.39 | 98 | |
| 20260904045520 | 54 | 229 | 1.0 | 2.0 | 0.00 | 0.41 | 0.39 | 98 | |
| 20260904044528 | 54 | 70 | 1.0 | 3.0 | 0.00 | 0.41 | 0.39 | 97 | |
| 20260904043557 | 54 | 78 | 2.0 | 3.0 | 0.00 | 0.41 | 0.39 | 97 | |
| 20260904042548 | 54 | 66 | 3.0 | 4.0 | 0.01 | 0.41 | 0.39 | 97 | |
| 20260904041533 | 55 | 51 | 3.0 | 4.0 | 0.01 | 0.41 | 0.39 | 97 | |
| 20260904040523 | 55 | 72 | 3.0 | 5.0 | 0.01 | 0.41 | 0.39 | 97 | |
| 20260904035531 | 55 | 61 | 3.0 | 5.0 | 0.01 | 0.41 | 0.39 | 97 | |
| 20260904034521 | 55 | 87 | 4.0 | 6.0 | 0.03 | 0.41 | 0.39 | 97 | |
| 20260904033528 | 55 | 90 | 4.0 | 7.0 | 0.06 | 0.41 | 0.39 | 96 | |
| 20260904032557 | 55 | 111 | 4.0 | 7.0 | 0.07 | 0.40 | 0.38 | 96 | |
| 20260904031527 | 55 | 127 | 5.0 | 7.0 | 0.07 | 0.40 | 0.38 | 96 | |
| 20260904030536 | 55 | 125 | 5.0 | 7.0 | 0.07 | 0.40 | 0.38 | 96 |